Location: *
(37.4917°N, 71.5558°E)
Time: 03:23:41
(UTC+00:00)

Cosmos 1328 - Pass Details

Date: 09 April 2020
Orbit: 540 x 544 km, 82.5° (Epoch: 31 May)

Event Time Altitude Azimuth Distance (km) Brightness Sun altitude
Rises 14:20:52 0° 3° (N) 2,716 7.5 -8.0°
Reaches altitude 10° 14:23:11 10° 12° (NNE) 1,819 6.5 -8.4°
Maximum altitude 14:26:51 34° 78° (ENE) 919 4.5 -9.1°
Drops below altitude 10° 14:30:28 10° 144° (SE) 1,806 6.0 -9.8°
Enters shadow 14:31:10 - 148° (SSE) 2,069 6.3 -9.9°
